Regional Weather Roundup
Issued by NWS

Home | Current Version | Previous Version | Graphics & Text | Print | Product List | Glossary On
Versions: 1 2 3 4 5 6 7 8 9 10 11 12 13 14 15 16 17 18 19 20 21 22 23 24 25 26 27 28 29 30 31 32 33 34 35 36 37 38 39 40 41 42 43 44 45 46 47 48 49 50
000
ASUS43 KMPX 150310
RWRMN
WEATHER ROUNDUP FOR MINNESOTA
NATIONAL WEATHER SERVICE TWIN CITIES/CHANHASSEN MN
900 PM CST THU DEC 14 2017


NOTE: "FAIR" INDICATES FEW OR NO CLOUDS BELOW 12,000 FEET WITH NO
SIGNIFICANT WEATHER AND/OR OBSTRUCTIONS TO VISIBILITY. N/A MEANS
CURRENT SKY AND/OR WEATHER CONDITIONS ARE NOT AVAILABLE.

MNZ060>063-068>070-150400-
   Twin Cities Metro

CITY           SKY/WX    TMP DP  RH WIND       PRES   REMARKS
TWIN CITIES    CLOUDY    23  17  78 W12G21    30.01F WCI  12
ST PAUL        CLOUDY    23  16  74 W10       30.02F WCI  12
CRYSTAL        CLOUDY    23  14  68 NW10      30.00S WCI  12
BLAINE         CLOUDY    25  18  74 NW14      29.99F WCI  13
LAKEVILLE      CLOUDY    21  18  86 W9        30.00F WCI  11
EDEN PRAIRIE   CLOUDY    24  16  71 W9        30.00F WCI  14
SOUTH ST PAUL  CLOUDY    24  16  71 W8        30.00F WCI  15
LAKE ELMO      CLOUDY    23  18  80 W7        30.00F WCI  15
$$
MNZ001>005-007-008-013>017-022>024-027-028-150400-
   Northwest Minnesota

CITY           SKY/WX    TMP DP  RH WIND       PRES   REMARKS
BEMIDJI        FLURRIES  13  10  86 W7        29.96F WCI   3
HALLOCK        MOCLDY    16  14  93 N7        30.02R WCI   6
ROSEAU         FLURRIES  14   9  79 N17       29.98S WCI  -3
WARROAD        LGT SNOW  12   9  85 NW12      29.98S WCI  -2
THIEF RVR FALL FLURRIES  16  12  86 W8        30.00F WCI   5
CROOKSTON      CLOUDY    18  18 100 W5        30.03F WCI  11
FOSSTON        LGT SNOW  12  10  92 W3        29.99F
DETROIT LAKES  LGT SNOW  18  16  93 CALM      30.00F
MOORHEAD       LGT RAIN  21  19  93 CALM      30.02F
PARK RAPIDS    FLURRIES  15  11  83 NW7       29.96F WCI   5
MAHNOMEN       LGT SNOW  15  13  90 CALM      29.99F
$$
MNZ006-009>011-018-025>026-150400-
   North Central Minnesota

CITY           SKY/WX    TMP DP  RH WIND       PRES   REMARKS
BAUDETTE       LGT SNOW  12   8  84 NW13G22   29.93F FOG     WCI  -3
FLAG ISLAND    CLOUDY    10   7  85 NW13      29.95F WCI  -5
INTL FALLS     LGT SNOW  12   6  77 W9        29.91F WCI   0
WASKISH        FLURRIES  12  10  92 W8        29.95F WCI   1
BIG FORK       LGT SNOW  12   7  79 W5        29.92F WCI   4
LONGVILLE      FLURRIES  14   9  79 W9G17     29.96S WCI   2
GRAND RAPIDS   FLURRIES  13   8  81 NW12      29.94F WCI  -1
CRANE LAKE     LGT SNOW  10   7  85 CALM      29.92F
ORR            LGT SNOW  10   7  85 NW9       29.88F WCI  -2
COOK           LGT SNOW  10   9  92 W6        29.90F WCI   1
WALKER         FLURRIES  13   9  85 NW7       29.96F WCI   3
$$
MNZ012-019>021-037-150400-
   Northeast Minnesota

CITY           SKY/WX    TMP DP  RH WIND       PRES   REMARKS
DULUTH         LGT SNOW  13   8  81 NW12      29.88F WCI  -1
ELY            LGT SNOW  10   7  85 W7        29.87S WCI   0
HIBBING        LGT SNOW  12   6  77 NW14      29.90F WCI  -3
EVELETH        LGT SNOW  12   6  76 W6        29.90F WCI   3
DULUTH HARBOR  CLOUDY    19  10  68 W13       29.96R WCI   7
TWO HARBORS    LGT SNOW  18  10  73 W7        29.87F WCI   8
SILVER BAY     CLOUDY    16  10  79 W5        29.86S WCI   9
GRAND MARAIS     N/A     19  12  74 MISG      29.88F
G MARAIS ARPRT LGT SNOW  10   5  79 W6        29.79F WCI   1
$$
MNZ029>031-032-039>041-046>048-054>057-064-150400-
   West Central Minnesota

CITY           SKY/WX    TMP DP  RH WIND       PRES   REMARKS
FERGUS FALLS   CLOUDY    21  21 100 CALM      30.04F
WHEATON        CLOUDY    27  21  80 SW7       30.05F WCI  19
MORRIS         CLOUDY    25  21  86 CALM      30.02F
ALEXANDRIA     CLOUDY    21  18  88 NW8       30.01S WCI  11
ELBOW LAKE     FLURRIES  22  21  95 SW5       30.01F WCI  16
WADENA         FLURRIES  18  14  86 NW7       29.98F WCI   8
GLENWOOD       FLURRIES  21  19  93 W8        30.01F WCI  12
APPLETON         N/A     27  21  80 W5        30.04F WCI  21
BENSON         CLOUDY    25  19  80 NW7       30.05S WCI  17
ORTONVILLE     CLOUDY    27  21  80 W3        30.04F
MADISON        CLOUDY    28  25  86 W5        30.05F WCI  23
WILLMAR        LGT SNOW  25  21  86 NW8       30.04S WCI  16
$$
MNZ033>034-036-042>043-049>051-058-059-150400-
   Central Minnesota

CITY           SKY/WX    TMP DP  RH WIND       PRES   REMARKS
ST CLOUD       CLOUDY    21  14  74 NW14      30.00S WCI   8
SAUK CENTRE    LGT SNOW  20  17  87 NW7       30.01S WCI  11
PAYNESVILLE    CLOUDY    22  19  89 W8        30.02S WCI  12
AITKIN         FLURRIES  16  10  79 NW7       29.94S WCI   6
PINE RIVER     CLOUDY    16   9  73 NW8       29.99F WCI   5
BRAINERD       CLOUDY    19  11  70 NW10G21   29.97S WCI   7
STAPLES        CLOUDY    18  12  79 NW10      29.98F WCI   6
LONG PRAIRIE   FLURRIES  19  16  86 W6        30.00F WCI  11
LITTLE FALLS   CLOUDY    21  10  63 W8        30.00S WCI  12
LITCHFIELD     CLOUDY    25  19  80 NW7       30.02S WCI  17
BUFFALO        CLOUDY    23  17  77 NW12      30.02S WCI  12
MAPLE LAKE     CLOUDY    23  18  81 NW8       30.02S WCI  14
HUTCHINSON     CLOUDY    25  20  82 W10       30.03S WCI  15
$$
MNZ037-044-045-052-053-150400-
   East Central Minnesota

CITY           SKY/WX    TMP DP  RH WIND       PRES   REMARKS
PRINCETON      CLOUDY    21  16  79 W7        29.99S WCI  13
MORA           FLURRIES  19  14  79 NW8       29.98F WCI   9
CAMBRIDGE      FLURRIES  21  12  68 W7        29.99S WCI  13
RUSH CITY      CLOUDY    20  15  81 W7        29.98S WCI  11
MOOSE LAKE     FLURRIES  19  12  73 W9        29.92F WCI   9
HINCKLEY       LGT SNOW  21  18  86 W8G16     29.95F WCI  12
CLOQUET        FLURRIES  16   9  73 NW10      29.90F WCI   3
MCGREGOR       CLOUDY    18  12  79 NW8       29.93F WCI   7
$$
MNZ071>073-080-081-089-090-097-098-150400-
   Southwest Minnesota

CITY           SKY/WX    TMP DP  RH WIND       PRES   REMARKS
MONTEVIDEO     CLOUDY    27  21  80 NW5       30.05F WCI  21
GRANITE FALLS  CLOUDY    28  23  82 W7        30.07S WCI  20
CANBY          CLOUDY    28  24  86 W7        30.06F WCI  21
MARSHALL       CLOUDY    25  22  88 W8        30.06F WCI  16
REDWOOD FALLS  CLOUDY    27  21  78 W9        30.05S WCI  18
OLIVIA         LGT SNOW  27  21  80 NW9       30.04S WCI  17
PIPESTONE      CLOUDY    25  19  80 NW6       30.05F WCI  18
WINDOM           N/A     25  12  58 NW9       30.05F WCI  15
WORTHINGTON    CLOUDY    24  22  91 NW12      30.07F WCI  13
JACKSON        CLOUDY    27  21  80 MISG      30.06F
TRACY          CLOUDY    27  23  86 NW7       30.05F WCI  19
SLAYTON        CLOUDY    24  23  93 W7        30.06S WCI  16
$$
MNZ065>067-074>077-082>085-091>093-150400-
   South Central Minnesota

CITY           SKY/WX    TMP DP  RH WIND       PRES   REMARKS
MANKATO        CLOUDY    24  18  77 NW9       30.04F WCI  14
NEW ULM        CLOUDY    25  18  74 NW12      30.04F WCI  14
ST JAMES       CLOUDY    25  19  80 W12G17    30.06F WCI  14
FAIRMONT       CLOUDY    25  20  81 NW13G24   30.06S WCI  14
GLENCOE        CLOUDY    25  20  82 W13       30.02S WCI  14
FARIBAULT      CLOUDY    25  19  80 NW10      30.02S WCI  15
OWATONNA       CLOUDY    25  19  80 NW18      30.01S WCI  11
WASECA         CLOUDY    23  19  86 W15G21    30.04F WCI  10
ALBERT LEA     CLOUDY    25  19  80 NW6       30.02S WCI  18
$$
MNZ078>079-086>088-094>096-150400-
   Southeast Minnesota

CITY           SKY/WX    TMP DP  RH WIND       PRES   REMARKS
ROCHESTER      CLOUDY    21  18  88 NW9       29.99F WCI  11
RED WING       FLURRIES  23  16  74 W7        30.00F WCI  15
STANTON        CLOUDY    25  19  77 W12       30.00F WCI  14
DODGE CENTER   CLOUDY    21  18  86 W7        29.99F WCI  13
WINONA         CLOUDY    25  18  74 W14G20    30.02S WCI  13
AUSTIN         CLOUDY    25  18  74 NW10      30.01S WCI  15
PRESTON        CLOUDY    21  16  79 NW13G21   30.00S WCI   9
$$
ABBREVIATIONS USED IN REMARKS
   TC - TEMPERATURES IN CELSIUS
  WCI - WIND CHILL INDEX
   HX - HEAT INDEX
  VSB - VISIBILITY
$$



USA.gov is the U.S. government's official web portal to all federal, state and local government web resources and services.